Wind_Speed
3 2 2 2 3 2 1 2 2 4 5 5 7 9 12 15 16 17 17 17 18 20 22 23 25 27 29 31 33 34 35 36 37 38 38 37 37 36 35 35 34 33 33 32 32 31 31 31 30
6 4 3 2 2 4 4 3 2 3 3 4 6 8 10 12 13 14 15 15 16 17 19 20 22 23 25 27 28 30 32 33 35 36 37 38 38 39 39 38 38 37 36 36 35 35 34 34 34
7 6 4 4 5 5 5 4 2 2 3 3 5 6 8 9 11 13 15 16 17 18 20 21 22 24 25 26 28 29 30 32 33 34 36 37 38 39 40 40 40 40 40 39 39 38 37 37 37
9 8 8 9 8 7 6 5 4 4 4 4 5 6 8 10 12 14 15 17 19 20 21 23 24 25 27 28 29 31 32 33 34 35 37 38 39 40 40 41 42 42 42 42 41 41 40 40 40
9 10 10 9 8 7 7 6 6 5 6 6 7 9 10 11 13 14 16 17 19 20 22 24 25 27 28 30 31 32 33 35 36 37 38 40 41 42 42 43 43 44 44 44 44 43 43 43 42
7 11 9 9 8 8 7 7 7 8 8 8 9 10 11 12 13 15 16 18 19 21 23 25 27 28 30 32 33 35 36 37 38 39 40 41 42 43 45 45 46 46 46 46 46 46 46 45 45
9 11 10 10 9 9 9 9 8 8 9 9 9 10 11 13 14 16 18 21 23 25 27 29 31 33 35 36 38 39 40 42 43 43 44 45 45 46 47 47 48 49 49 50 49 49 48 48 47
11 11 11 11 10 10 9 9 9 9 9 10 10 12 13 16 18 21 23 26 29 31 34 36 38 40 42 44 45 46 47 48 49 49 49 50 50 50 51 51 51 51 51 51 52 52 52 51 50
12 12 12 11 10 10 10 9 10 10 10 12 14 16 18 21 24 26 29 32 35 38 40 43 45 47 50 52 53 54 56 56 57 57 57 56 56 56 55 55 55 54 54 54 53 53 54 55 54
13 13 12 12 11 10 10 10 11 12 14 16 19 21 24 26 29 32 35 38 40 44 47 50 52 55 57 59 60 62 63 64 64 65 64 64 63 62 61 61 60 59 58 57 56 56 56 56 56
13 13 12 11 10 10 10 11 13 15 17 20 23 25 28 32 35 38 41 43 46 49 52 55 58 60 63 65 66 68 69 70 70 71 71 70 69 69 68 67 66 65 64 62 61 60 59 58 58
12 11 9 8 8 9 11 13 15 18 21 24 27 30 33 36 39 42 44 47 50 53 56 60 62 65 67 70 72 74 75 76 76 76 76 75 75 74 73 72 71 70 69 68 66 65 63 62 61
9 7 6 7 8 10 13 16 19 21 24 27 31 34 37 40 42 45 48 51 54 57 61 65 68 71 72 74 76 77 78 79 79 79 79 78 78 77 76 76 76 75 74 72 71 70 68 66 65
5 5 6 8 10 12 15 19 22 25 28 31 34 37 40 42 45 47 51 55 59 63 66 70 72 74 76 78 80 80 81 81 80 80 80 80 79 79 78 78 78 78 77 77 76 75 73 72 70
4 6 9 11 13 16 18 20 26 29 31 34 36 39 41 44 47 51 55 60 63 67 71 74 76 78 80 82 83 84 84 83 82 80 78 76 75 74 74 74 75 76 77 78 79 79 78 76 75
7 10 12 15 17 20 22 22 26 30 33 36 39 42 44 47 51 56 60 64 68 71 74 77 79 82 84 85 85 85 82 79 75 72 69 67 65 64 64 65 67 69 72 75 78 81 81 80 79
12 14 16 18 21 23 25 27 29 33 36 39 42 44 48 52 56 60 64 67 71 75 78 81 82 84 85 84 82 78 73 69 64 61 59 57 55 54 54 54 56 59 63 67 73 78 81 82 82
16 19 21 21 25 26 28 29 31 34 38 42 44 48 52 56 60 64 67 71 75 78 81 83 84 84 82 78 73 68 64 60 57 55 53 52 51 50 50 49 49 50 53 58 64 71 77 81 83
19 21 23 24 27 29 30 32 32 35 40 43 47 51 56 60 64 68 71 75 78 80 82 83 83 81 77 72 67 62 59 57 55 54 54 53 52 51 50 49 48 48 48 51 55 61 69 76 82
21 23 25 24 25 29 32 33 33 37 42 46 51 55 59 63 67 71 75 78 80 81 82 81 80 76 73 69 65 61 59 58 57 56 56 55 55 54 53 51 50 49 48 48 49 52 58 66 75
22 24 27 30 30 30 34 35 35 40 45 50 55 59 63 67 72 75 78 80 81 81 81 79 77 73 69 66 63 61 59 58 56 55 55 55 54 54 54 53 51 51 50 48 47 48 50 54 63
24 25 27 30 32 33 34 39 39 45 50 55 59 62 67 71 75 78 79 80 81 80 79 77 73 70 68 66 63 61 58 55 54 52 51 50 50 51 51 51 52 51 51 49 48 47 47 48 53
26 28 29 31 32 35 36 42 45 50 55 58 62 66 70 74 76 78 79 80 80 79 77 74 71 68 66 63 60 57 55 53 51 49 48 47 46 47 47 47 48 50 50 49 48 47 46 46 47
28 29 30 31 35 39 43 47 49 52 57 61 65 69 72 74 77 78 80 80 79 78 75 72 68 65 63 60 57 55 53 51 49 47 46 45 44 43 43 44 44 46 47 48 47 46 45 45 45
28 30 33 36 38 41 43 45 49 54 59 63 67 70 73 76 78 79 80 79 78 76 72 68 65 63 60 57 56 55 53 51 49 47 45 43 42 41 41 40 41 41 43 45 46 45 44 44 43
29 30 32 35 38 39 43 48 52 56 60 63 67 72 75 77 78 78 78 78 76 73 69 66 63 61 58 57 56 55 53 51 49 48 46 44 42 40 39 38 38 39 40 41 43 44 44 43 43
30 30 32 35 39 43 46 50 53 57 61 65 69 73 75 76 77 77 78 77 74 70 67 64 62 59 58 57 57 55 53 51 49 48 46 43 41 40 38 37 36 36 37 39 40 42 43 43 42
29 32 34 36 41 45 47 52 55 58 62 67 71 73 75 76 76 77 77 75 71 67 64 62 60 59 58 58 57 55 53 51 49 46 44 42 40 39 37 36 35 35 35 36 38 40 42 42 42
29 31 33 37 40 45 51 54 55 59 64 68 71 73 75 76 76 76 75 72 68 64 62 61 59 59 58 58 57 55 52 49 47 45 43 42 40 39 38 36 34 33 33 33 35 37 40 41 42
29 33 35 37 41 44 49 54 57 61 65 69 72 74 75 75 75 75 74 69 65 62 61 60 59 59 58 58 57 54 51 49 46 45 43 43 42 41 39 37 36 34 32 32 33 35 37 39 41
Wind_Direction
91 103 149 167 210 240 355 350 314 288 292 295 288 287 289 292 297 297 297 294 291 290 287 285 283 280 277 275 272 270 269 267 266 264 263 262 260 259 258 258 258 258 256 254 253 251 249 248 247
96 104 118 127 100 72 46 32 355 319 313 308 295 293 296 301 307 309 311 312 310 306 303 300 297 294 291 287 284 280 277 274 272 270 268 266 264 263 261 260 259 257 256 255 253 251 249 248 246
96 94 83 80 69 65 58 60 47 359 345 330 314 314 315 317 319 319 320 320 318 315 312 309 306 303 300 296 293 289 286 282 279 276 273 270 268 266 264 263 261 259 257 255 254 252 251 249 247
93 90 78 71 69 68 65 57 47 25 12 357 343 338 333 330 327 325 325 323 321 318 315 312 309 305 302 298 295 292 289 286 283 281 278 275 273 270 267 265 263 261 259 257 255 253 251 250 248
90 86 76 72 69 63 58 49 36 25 13 5 357 351 345 340 336 332 329 325 321 318 314 311 307 304 301 298 295 292 290 287 284 282 279 277 275 272 270 268 266 263 261 259 257 254 252 251 249
90 81 77 69 63 58 50 43 35 27 21 16 9 358 350 342 336 332 327 322 318 314 310 307 303 301 298 295 293 291 288 286 284 282 280 277 275 273 271 269 267 265 263 260 258 256 254 252 250
72 74 69 65 61 58 53 48 40 31 21 14 8 357 347 339 332 327 323 318 314 310 307 304 301 298 296 293 291 289 286 284 283 281 279 277 275 273 271 269 267 265 263 261 259 257 255 253 251
73 72 67 65 61 57 53 47 40 32 23 11 360 348 339 331 325 321 317 313 310 307 304 302 300 298 296 294 292 290 287 285 283 281 279 277 275 273 271 269 267 265 263 261 259 257 255 254 251
74 70 67 64 60 58 53 45 34 21 6 353 343 335 329 323 319 316 313 310 308 306 305 303 301 300 298 297 295 293 291 289 286 284 281 278 276 274 272 270 267 265 263 261 259 257 255 253 251
75 72 69 67 61 54 41 28 12 358 347 339 332 327 323 320 317 314 313 312 310 309 308 306 305 303 301 300 298 295 293 291 289 286 283 281 278 275 273 270 268 266 263 261 259 257 255 253 251
80 77 72 64 52 35 18 3 350 341 334 330 327 323 321 319 318 316 315 313 311 310 308 306 305 303 301 300 298 296 293 291 289 287 284 282 279 276 274 271 269 266 264 261 259 256 254 252 251
84 76 65 50 30 11 355 344 336 331 329 327 325 323 321 320 318 317 315 312 311 309 308 306 304 303 301 299 298 296 294 291 289 287 284 282 279 276 273 270 268 265 263 261 259 256 254 252 250
79 67 44 19 0 348 340 334 331 328 327 325 323 322 320 319 318 316 314 312 311 309 308 307 305 304 302 300 298 296 294 292 289 286 284 281 279 276 273 270 267 264 262 259 258 256 253 251 249
57 27 3 348 339 335 333 329 327 327 325 323 322 321 320 319 317 316 314 313 312 310 309 308 306 305 304 302 300 298 295 292 290 287 285 282 279 276 273 270 266 263 260 258 255 253 252 250 249
2 343 337 334 330 328 329 328 325 325 323 322 321 320 319 318 318 317 315 314 312 311 310 309 308 307 306 304 301 299 297 295 293 291 289 286 283 279 276 272 269 265 261 257 254 252 250 248 247
328 330 327 327 325 325 324 326 323 323 322 321 321 321 320 319 318 317 316 315 314 313 312 311 310 309 307 305 304 302 300 299 296 293 291 288 285 282 279 275 271 268 263 259 255 251 248 246 245
319 320 323 325 322 322 322 325 325 323 322 322 323 322 321 320 319 318 318 317 316 315 315 314 312 311 309 308 306 305 302 300 297 294 291 289 286 284 281 278 274 269 264 259 255 252 248 245 243
320 320 321 322 320 322 323 325 327 325 323 324 324 323 322 322 321 320 320 319 319 319 317 316 315 313 311 310 308 306 304 301 298 295 292 289 287 284 282 280 278 274 269 263 257 251 248 245 242
315 316 318 322 322 323 323 325 329 326 324 325 325 324 325 325 324 323 323 322 321 320 319 317 315 314 313 312 310 307 304 300 297 294 291 289 286 284 282 280 279 277 274 269 263 256 249 244 241
314 316 317 319 319 321 323 326 329 326 327 327 328 328 328 327 326 326 325 324 323 321 320 319 317 317 315 314 312 309 306 302 298 295 292 289 287 284 281 279 277 275 273 272 268 263 255 248 242
315 317 319 321 323 325 324 323 329 328 329 330 331 330 329 329 328 327 326 325 324 323 322 321 320 319 318 317 315 312 309 306 302 298 295 291 288 284 281 277 275 274 272 270 269 266 261 254 246
315 317 320 322 324 325 325 323 331 332 331 332 332 331 331 331 330 329 328 327 326 325 324 324 323 322 321 319 317 315 312 309 306 303 299 295 291 286 282 278 274 271 270 268 267 266 264 259 251
316 320 323 323 322 323 327 331 337 335 333 333 334 334 333 332 331 330 329 328 328 327 326 326 325 325 324 323 322 320 318 315 312 308 305 301 297 292 286 281 275 270 268 266 264 263 263 261 255
318 320 320 323 326 331 336 336 335 335 335 336 336 335 334 333 331 331 330 330 329 329 328 329 328 328 328 327 326 325 323 320 317 314 310 306 301 296 291 286 279 273 267 264 262 261 260 259 256
319 323 327 330 333 334 332 331 336 338 338 338 336 334 333 333 333 332 332 331 331 331 331 331 332 332 331 330 329 328 326 324 322 319 316 311 306 301 295 289 283 277 270 264 260 258 257 256 255
323 327 329 330 330 328 328 334 339 339 338 336 335 334 335 335 334 333 333 333 332 333 333 334 334 334 333 332 331 330 328 326 324 322 320 317 313 308 301 294 286 279 273 267 261 257 254 253 252
324 326 328 328 327 330 334 334 337 338 337 336 336 336 336 336 335 334 334 334 334 335 336 336 336 336 335 334 333 331 329 328 326 324 323 320 317 313 308 302 293 284 275 269 263 257 253 251 249
324 326 328 330 331 332 332 335 338 337 337 337 338 337 337 337 336 336 335 336 336 337 337 338 337 337 337 336 335 333 331 330 329 327 325 323 320 317 313 309 301 291 281 271 264 258 252 249 248
324 326 329 331 332 333 333 335 337 338 338 339 339 338 338 338 337 337 337 337 338 338 339 339 339 339 338 338 337 335 334 333 332 330 329 327 323 319 314 311 307 298 288 277 267 259 252 248 246
328 329 330 332 333 332 332 334 338 339 339 340 339 340 339 339 338 338 338 339 339 339 340 340 340 340 340 340 339 338 336 335 333 331 329 327 324 321 316 310 306 301 294 284 273 262 254 247 244
Height
5859 5860 5860 5861 5862 5863 5863 5864 5865 5866 5868 5869 5869 5869 5868 5867 5867 5869 5866 5864 5863 5862 5861 5860 5859 5858 5857 5855 5854 5853 5852 5852 5851 5850 5850 5849 5849 5849 5848 5848 5849 5849 5849 5850 5851 5851 5852 5852 5853
5859 5860 5861 5862 5862 5863 5864 5864 5865 5866 5867 5868 5868 5868 5868 5866 5866 5864 5863 5862 5861 5860 5858 5857 5855 5854 5853 5851 5850 5848 5847 5846 5845 5844 5843 5843 5842 5842 5842 5841 5841 5842 5842 5843 5844 5845 5845 5846 5847
5860 5861 5863 5862 5862 5863 5864 5865 5865 5866 5867 5868 5868 5867 5867 5865 5864 5862 5861 5860 5858 5857 5855 5854 5852 5850 5848 5846 5845 5843 5841 5840 5838 5837 5836 5836 5835 5834 5834 5834 5834 5834 5835 5835 5836 5837 5838 5839 5840
5861 5863 5864 5863 5863 5864 5865 5866 5866 5867 5867 5868 5867 5866 5864 5863 5862 5861 5859 5857 5856 5854 5852 5850 5848 5846 5844 5841 5839 5837 5835 5833 5831 5830 5829 5828 5827 5826 5826 5826 5826 5826 5826 5827 5828 5829 5830 5831 5833
5863 5865 5865 5864 5865 5866 5866 5867 5867 5867 5867 5866 5866 5865 5863 5862 5860 5859 5857 5855 5853 5851 5849 5846 5844 5841 5839 5836 5834 5831 5829 5826 5824 5822 5821 5819 5818 5817 5817 5816 5816 5817 5817 5818 5819 5820 5821 5822 5824
5866 5865 5866 5866 5867 5867 5867 5867 5867 5867 5866 5865 5865 5864 5862 5860 5859 5857 5854 5852 5850 5848 5845 5842 5840 5837 5833 5830 5827 5824 5821 5819 5816 5814 5812 5810 5808 5807 5806 5806 5806 5806 5807 5808 5809 5810 5811 5813 5814
5867 5866 5867 5867 5868 5868 5869 5868 5868 5867 5866 5865 5864 5863 5860 5859 5857 5855 5852 5850 5847 5844 5841 5838 5834 5831 5827 5824 5820 5816 5813 5810 5807 5805 5802 5800 5798 5797 5796 5795 5794 5795 5795 5796 5798 5799 5801 5802 5804
5868 5869 5868 5869 5869 5869 5869 5869 5868 5867 5866 5865 5864 5862 5859 5858 5855 5852 5850 5847 5843 5840 5836 5832 5828 5824 5820 5816 5812 5808 5804 5801 5798 5795 5792 5789 5787 5785 5784 5783 5782 5782 5783 5784 5785 5787 5789 5791 5793
5871 5871 5870 5870 5871 5870 5870 5870 5869 5867 5866 5864 5862 5860 5858 5855 5852 5849 5846 5842 5838 5834 5829 5825 5820 5816 5811 5806 5802 5798 5794 5790 5786 5783 5780 5777 5775 5773 5772 5770 5769 5769 5769 5770 5772 5773 5775 5777 5780
5873 5872 5872 5872 5872 5871 5870 5870 5869 5867 5865 5863 5861 5858 5855 5852 5848 5845 5841 5836 5832 5827 5822 5816 5811 5806 5800 5795 5790 5785 5780 5776 5772 5768 5765 5763 5760 5758 5757 5756 5755 5755 5755 5756 5757 5759 5761 5763 5766
5874 5874 5873 5873 5873 5872 5871 5870 5868 5866 5864 5861 5858 5855 5852 5848 5843 5839 5834 5829 5824 5819 5813 5807 5801 5795 5789 5782 5776 5770 5765 5760 5755 5751 5747 5745 5743 5741 5740 5739 5738 5738 5739 5740 5742 5743 5745 5748 5751
5875 5875 5875 5874 5873 5872 5871 5869 5867 5865 5862 5859 5855 5851 5847 5843 5838 5833 5828 5822 5816 5810 5804 5797 5790 5783 5775 5768 5761 5754 5747 5741 5735 5731 5727 5724 5722 5720 5719 5718 5718 5719 5720 5722 5724 5726 5728 5732 5735
5877 5876 5876 5875 5874 5872 5870 5868 5866 5862 5859 5855 5851 5847 5842 5837 5832 5827 5821 5814 5808 5800 5793 5784 5776 5768 5759 5751 5742 5734 5726 5720 5713 5708 5703 5700 5698 5696 5696 5695 5695 5696 5699 5702 5705 5707 5710 5715 5718
5878 5877 5876 5875 5873 5871 5869 5867 5864 5860 5856 5852 5847 5842 5837 5832 5826 5820 5812 5805 5797 5788 5779 5770 5760 5750 5740 5731 5722 5713 5704 5696 5689 5683 5678 5674 5672 5670 5669 5669 5669 5671 5675 5678 5682 5685 5690 5695 5699
5878 5877 5876 5874 5872 5870 5868 5865 5860 5856 5852 5847 5842 5838 5832 5826 5819 5812 5803 5795 5785 5775 5765 5754 5744 5732 5721 5710 5699 5689 5679 5670 5663 5656 5651 5647 5645 5643 5642 5642 5642 5645 5648 5652 5656 5661 5667 5673 5679
5878 5877 5876 5873 5870 5867 5866 5863 5858 5852 5847 5842 5837 5831 5825 5818 5811 5803 5793 5783 5772 5761 5749 5737 5725 5713 5701 5688 5676 5665 5654 5645 5638 5632 5627 5623 5620 5618 5617 5616 5616 5618 5620 5624 5629 5635 5642 5649 5656
5877 5875 5873 5871 5867 5864 5861 5858 5854 5848 5842 5836 5831 5824 5817 5809 5801 5792 5781 5770 5758 5746 5733 5720 5706 5693 5680 5667 5654 5643 5633 5624 5618 5612 5606 5603 5600 5597 5596 5594 5594 5594 5595 5597 5602 5608 5615 5624 5631
5875 5872 5870 5868 5864 5860 5857 5853 5849 5842 5836 5830 5824 5817 5809 5800 5790 5780 5769 5757 5744 5730 5716 5702 5687 5673 5660 5647 5636 5625 5615 5607 5601 5595 5590 5586 5583 5580 5578 5576 5575 5573 5573 5574 5576 5581 5588 5596 5605
5873 5870 5867 5865 5860 5856 5852 5848 5844 5838 5831 5824 5817 5809 5800 5790 5779 5767 5755 5742 5729 5715 5700 5685 5670 5656 5642 5631 5620 5610 5601 5593 5586 5580 5574 5570 5566 5564 5562 5560 5558 5557 5555 5555 5555 5558 5563 5569 5577
5870 5867 5864 5862 5858 5853 5847 5844 5840 5833 5825 5818 5809 5800 5790 5780 5768 5755 5742 5728 5714 5699 5683 5668 5653 5639 5625 5614 5603 5593 5585 5577 5570 5564 5558 5553 5549 5546 5544 5543 5542 5540 5539 5538 5538 5538 5541 5546 5552
5868 5864 5860 5856 5852 5849 5843 5839 5835 5826 5818 5810 5801 5791 5780 5768 5755 5742 5728 5714 5699 5683 5668 5652 5636 5623 5610 5598 5588 5579 5570 5561 5553 5547 5540 5535 5531 5527 5526 5525 5524 5523 5522 5522 5522 5522 5523 5526 5531
5864 5861 5857 5852 5847 5843 5839 5831 5828 5818 5809 5801 5792 5781 5769 5757 5743 5729 5715 5700 5684 5668 5652 5636 5621 5608 5595 5583 5573 5563 5554 5545 5537 5530 5524 5518 5513 5509 5507 5506 5505 5505 5505 5505 5506 5506 5507 5509 5512
5860 5856 5853 5848 5843 5838 5832 5825 5819 5810 5801 5793 5783 5771 5758 5746 5732 5717 5701 5685 5669 5653 5637 5622 5608 5594 5581 5569 5558 5548 5538 5530 5522 5515 5509 5503 5498 5493 5490 5488 5487 5486 5487 5488 5489 5490 5491 5493 5495
5856 5853 5849 5844 5838 5831 5824 5817 5812 5805 5795 5784 5772 5761 5749 5736 5721 5705 5688 5672 5656 5640 5624 5610 5596 5582 5570 5557 5546 5536 5527 5518 5510 5503 5496 5490 5484 5479 5475 5472 5470 5469 5469 5471 5472 5474 5476 5477 5479
5854 5849 5844 5837 5831 5826 5821 5815 5809 5798 5787 5776 5765 5753 5740 5725 5709 5693 5676 5660 5644 5628 5613 5599 5585 5572 5560 5548 5537 5526 5517 5508 5499 5491 5484 5478 5472 5466 5462 5458 5455 5454 5453 5454 5456 5458 5460 5462 5465
5850 5846 5841 5835 5830 5825 5817 5809 5803 5792 5782 5770 5759 5746 5730 5714 5698 5681 5665 5648 5633 5617 5602 5589 5575 5563 5551 5540 5528 5518 5507 5498 5489 5480 5473 5466 5459 5454 5449 5445 5442 5440 5439 5439 5440 5442 5445 5448 5451
5846 5842 5838 5833 5825 5818 5811 5804 5796 5786 5776 5765 5751 5736 5721 5705 5688 5671 5655 5638 5622 5607 5593 5580 5567 5555 5543 5531 5520 5509 5499 5489 5480 5471 5463 5455 5448 5442 5437 5432 5429 5426 5425 5425 5425 5427 5430 5433 5437
5844 5839 5834 5828 5820 5813 5806 5799 5791 5780 5769 5756 5742 5727 5712 5696 5679 5662 5646 5629 5613 5599 5585 5572 5559 5547 5535 5523 5512 5501 5490 5480 5470 5462 5454 5446 5439 5432 5427 5421 5417 5414 5412 5411 5411 5413 5415 5419 5422
5841 5836 5830 5824 5817 5808 5799 5795 5785 5773 5761 5748 5734 5719 5703 5687 5670 5653 5637 5621 5606 5592 5578 5566 5553 5541 5529 5517 5505 5493 5482 5472 5462 5453 5445 5437 5430 5423 5417 5411 5406 5402 5400 5398 5398 5399 5401 5405 5408
5837 5831 5826 5821 5814 5805 5796 5790 5778 5766 5754 5740 5726 5710 5694 5678 5661 5645 5629 5613 5599 5586 5573 5560 5547 5535 5522 5510 5498 5486 5475 5465 5455 5446 5438 5429 5422 5414 5407 5401 5396 5392 5388 5386 5385 5385 5387 5391 5394